Change the Weather History Date:

Monday, September 9, 2013

  Actual Average (KBKW) Record (KBKW)
Temperature  
Mean Temperature 76 °F 66 °F  
Max Temperature 88 °F 75 °F 93 °F (1941)
Min Temperature 65 °F 56 °F 33 °F (1956)
Degree Days  
Heating Degree Days 0 2  
Month to date heating degree days 13  
Since 1 July heating degree days 34  
Cooling Degree Days 12 3  
Month to date cooling degree days 30  
Year to date cooling degree days 523  
Growing Degree Days 26 (Base 50)    
Moisture  
Dew Point 69 °F    
Average Humidity 87    
Maximum Humidity 100    
Minimum Humidity 54    
Precipitation  
Precipitation 0.00 in 0.10 in 2.00 in (1926)
Month to date precipitation 0.89  
Year to date precipitation 30.55  
Snow  
Snow 0.00 in - - ()
Month to date snowfall  
Since 1 September snowfall  
Snow Depth -    
Sea Level Pressure  
Sea Level Pressure 30.18 in    
Wind  
Wind Speed - (North)    
Max Wind Speed -    
Max Gust Speed -    
Visibility 5 miles    
Events Fog    
T = Trace of Precipitation, MM = Missing Value Source: NWS Daily Summary

Daily Weather History Graph

Daily Weather History Graph

Search for Another Location

Airport or City:

Trip Planner

Search our weather history database for the weather conditions in past years. The results will help you decide how hot, cold, wet, or windy it might be!

Date:

Astronomy

Sep. 09, 2013 Rise Set
Actual Time 7:03 AM EDT 7:42 PM EDT
Civil Twilight 6:36 AM EDT 8:09 PM EDT
Nautical Twilight 6:05 AM EDT 8:40 PM EDT
Astronomical Twilight 5:33 AM EDT 9:12 PM EDT
Moon 11:17 AM EDT (9/9) 10:04 PM EDT (9/9)
Length of Visible Light 13h 32m
Length of Day
12h 39m
Waxing Crescent, 19% of the Moon is Illuminated
Sep 9
Waxing Crescent
Sep 12
First Quarter
Sep 19
Full
Sep 26
Last Quarter
Oct 4
New

Hourly Weather History & Observations

Time (EDT) Temp. Heat Index Dew Point Humidity Pressure Visibility Wind Dir Wind Speed Gust Speed Precip Events Conditions
12:15 AM 67.1 °F - 67.1 °F 100% 30.13 in 2.5 mi North - - N/A   Mist
12:35 AM 67.1 °F - 67.1 °F 100% 30.14 in 1.8 mi North - - N/A   Mist
12:55 AM 66.7 °F - 66.7 °F 100% 30.14 in 2.5 mi North - - N/A   Mist
1:15 AM 66.2 °F - 66.2 °F 100% 30.14 in 4.0 mi North - - N/A   Mostly Cloudy
1:35 AM 66.6 °F - 66.6 °F 100% 30.14 in 2.0 mi North - - N/A   Overcast
1:55 AM 66.7 °F - 66.7 °F 100% 30.14 in 1.5 mi North - - N/A   Overcast
2:15 AM 66.6 °F - 66.6 °F 100% 30.15 in 1.5 mi North - - N/A   Overcast
2:35 AM 66.4 °F - 66.4 °F 100% 30.15 in 1.0 mi North - - N/A   Overcast
2:55 AM 66.6 °F - 66.6 °F 100% 30.15 in 1.0 mi North - - N/A   Overcast
3:15 AM 67.5 °F - 67.5 °F 100% 30.14 in 0.5 mi North - - N/A Fog Fog
3:35 AM 67.1 °F - 67.1 °F 100% 30.14 in 0.5 mi North - - N/A Fog Fog
3:55 AM 66.6 °F - 66.6 °F 100% 30.15 in 0.5 mi North - - N/A Fog Fog
4:15 AM 66.9 °F - 66.9 °F 100% 30.15 in 0.8 mi North - - N/A   Overcast
4:35 AM 67.1 °F - 67.1 °F 100% 30.15 in 0.5 mi North - - N/A Fog Fog
4:55 AM 67.1 °F - 67.1 °F 100% 30.16 in 0.2 mi North - - N/A Fog Fog
5:15 AM 66.4 °F - 66.4 °F 100% 30.16 in 0.2 mi North - - N/A Fog Fog
5:35 AM 66.2 °F - 66.2 °F 100% 30.17 in 0.8 mi North - - N/A   Overcast
5:55 AM 66.0 °F - 66.0 °F 100% 30.17 in 0.8 mi North - - N/A   Overcast
6:15 AM 65.8 °F - 65.8 °F 100% 30.17 in 0.8 mi North - - N/A   Overcast
6:35 AM 65.7 °F - 65.7 °F 100% 30.17 in 0.5 mi North - - N/A Fog Fog
6:55 AM 65.5 °F - 65.5 °F 100% 30.18 in 0.5 mi North - - N/A Fog Fog
7:15 AM 65.5 °F - 65.5 °F 100% 30.19 in 0.2 mi North - - N/A Fog Fog
7:35 AM 65.3 °F - 65.3 °F 100% 30.20 in 0.2 mi North - - N/A Fog Fog
7:55 AM 65.3 °F - 65.3 °F 100% 30.20 in 0.5 mi North - - N/A Fog Fog
8:15 AM 65.8 °F - 65.8 °F 100% 30.20 in 0.5 mi North - - N/A Fog Fog
8:35 AM 66.2 °F - 66.2 °F 100% 30.20 in 0.2 mi North - - N/A Fog Fog
8:55 AM 66.6 °F - 66.6 °F 100% 30.21 in 1.8 mi North - - N/A   Overcast
9:15 AM 67.5 °F - 67.5 °F 100% 30.21 in 3.0 mi North - - N/A   Overcast
9:35 AM 69.6 °F - 69.6 °F 100% 30.21 in 7.0 mi North - - N/A   Scattered Clouds
9:55 AM 72.9 °F - 70.5 °F 92% 30.20 in 10.0 mi North - - N/A   Clear
10:15 AM 75.2 °F - 70.3 °F 85% 30.21 in 10.0 mi North - - N/A   Clear
10:35 AM 77.2 °F - 69.8 °F 78% 30.21 in 10.0 mi North - - N/A   Clear
10:55 AM 78.3 °F - 70.0 °F 76% 30.22 in 10.0 mi North - - N/A   Clear
11:15 AM 80.6 °F 84.2 °F 70.7 °F 72% 30.21 in 10.0 mi North - - N/A   Clear
11:35 AM 81.0 °F 84.6 °F 70.5 °F 70% 30.22 in 10.0 mi North - - N/A   Clear
11:55 AM 81.9 °F 85.8 °F 70.5 °F 68% 30.21 in 10.0 mi North - - N/A   Clear
12:15 PM 83.3 °F 87.4 °F 70.2 °F 64% 30.21 in 10.0 mi North - - N/A   Scattered Clouds
12:35 PM 84.2 °F 88.1 °F 69.3 °F 61% 30.21 in 10.0 mi North - - N/A   Clear
12:55 PM 84.7 °F 88.8 °F 69.4 °F 60% 30.20 in 10.0 mi North - - N/A   Scattered Clouds
1:15 PM 86.0 °F 90.1 °F 69.1 °F 57% 30.20 in 10.0 mi North - - N/A   Scattered Clouds
1:35 PM 85.3 °F 89.4 °F 69.3 °F 59% 30.20 in 10.0 mi North - - N/A   Scattered Clouds
1:55 PM 84.9 °F 88.8 °F 69.3 °F 59% 30.19 in 10.0 mi North - - N/A   Mostly Cloudy
2:15 PM 85.5 °F 89.8 °F 69.4 °F 59% 30.19 in 10.0 mi North - - N/A   Scattered Clouds
2:35 PM 86.4 °F 91.1 °F 70.2 °F 58% 30.19 in 10.0 mi North - - N/A   Scattered Clouds
2:55 PM 88.2 °F 92.9 °F 69.6 °F 54% 30.18 in 10.0 mi North - - N/A   Scattered Clouds
3:15 PM 88.3 °F 93.2 °F 69.8 °F 54% 30.17 in 10.0 mi North - - N/A   Mostly Cloudy
3:55 PM 87.8 °F 93.0 °F 70.3 °F 56% 30.16 in 10.0 mi North - - N/A   Scattered Clouds
4:15 PM 88.2 °F 92.9 °F 69.6 °F 54% 30.16 in 10.0 mi North - - N/A   Scattered Clouds
4:35 PM 86.7 °F 91.4 °F 69.6 °F 57% 30.15 in 10.0 mi North - - N/A   Scattered Clouds
4:55 PM 87.3 °F 92.4 °F 70.2 °F 57% 30.16 in 10.0 mi North - - N/A   Mostly Cloudy
5:15 PM 83.1 °F 88.4 °F 72.0 °F 69% 30.15 in 10.0 mi North - - N/A   Mostly Cloudy
5:35 PM 81.0 °F 86.0 °F 73.4 °F 78% 30.15 in 10.0 mi North - - N/A   Scattered Clouds
5:55 PM 81.3 °F 87.0 °F 74.1 °F 79% 30.16 in 10.0 mi North - - N/A   Clear
6:15 PM 78.8 °F - 73.4 °F 83% 30.16 in 10.0 mi North - - N/A   Clear
6:35 PM 77.9 °F - 73.2 °F 85% 30.16 in 10.0 mi North - - N/A   Scattered Clouds
6:55 PM 76.5 °F - 72.7 °F 88% 30.15 in 10.0 mi North - - N/A   Scattered Clouds
7:15 PM 77.5 °F - 73.0 °F 86% 30.15 in 10.0 mi North - - N/A   Mostly Cloudy
7:35 PM 77.0 °F - 73.2 °F 88% 30.15 in 10.0 mi North - - N/A   Mostly Cloudy
7:55 PM 75.4 °F - 72.7 °F 91% 30.16 in 7.0 mi North - - N/A   Clear
8:15 PM 73.8 °F - 72.0 °F 94% 30.17 in 7.0 mi North - - N/A   Clear
8:35 PM 72.5 °F - 71.4 °F 96% 30.18 in 7.0 mi North - - N/A   Scattered Clouds
8:55 PM 72.0 °F - 71.1 °F 97% 30.19 in 5.0 mi North - - N/A   Clear
9:15 PM 71.6 °F - 70.7 °F 97% 30.20 in 5.0 mi North - - N/A   Scattered Clouds
9:35 PM 71.6 °F - 70.9 °F 98% 30.20 in 5.0 mi North - - N/A   Scattered Clouds
9:55 PM 70.7 °F - 70.3 °F 99% 30.21 in 4.0 mi North - - N/A   Scattered Clouds
10:15 PM 70.3 °F - 70.2 °F 99% 30.21 in 4.0 mi North - - N/A   Clear
10:35 PM 70.0 °F - 69.8 °F 99% 30.21 in 3.0 mi North - - N/A   Mist
10:55 PM 69.8 °F - 69.8 °F 100% 30.22 in 3.0 mi North - - N/A   Mist
11:15 PM 69.8 °F - 69.8 °F 100% 30.23 in 3.0 mi North - - N/A   Mist
11:35 PM 69.6 °F - 69.6 °F 100% 30.23 in 3.0 mi North - - N/A   Mist
11:55 PM 69.3 °F - 69.3 °F 100% 30.23 in 2.5 mi North - - N/A   Mist